Location: Mascot Post Office (historical)
(40.2645°N, 99.5462°W)
Time: 17:27:27
(UTC+00:00)

Cosmos 1953 Rocket - Pass Details

Date: 14 July 2020
Orbit: 605 x 634 km, 82.5° (Epoch: 04 August)

Event Time Altitude Azimuth Distance (km) Brightness Sun altitude
Rises 03:02:26 0° 190° (S) 2,845 6.7 -9.5°
Reaches altitude 10° 03:04:38 10° 192° (SSW) 1,946 5.8 -9.8°
Maximum altitude 03:08:56 75° 278° (W) 631 3.7 -10.4°
Drops below altitude 10° 03:13:17 10° 4° (N) 1,968 6.7 -11.1°
Sets 03:15:32 0° 6° (N) 2,880 7.5 -11.4°
